STARLINK-2586 (48390 NORAD) Tracking and Keplerian Element Data

This shows tracking and keplerian element data for the satellite.

Feedback or suggestion? Click here.




ElementValue
Catalog48390
NameSTARLINK-2586
Epoch Orbit366
Epoch Day214.91667824
Epoch Year2021
RAAN322.4208
Inclination53.0486
Eccentricity0.0001452
Argument of Perigee85.6644
Mean Anonmoly143.2912
Mean Motion15.08918454
Decay Rate-0.01139248
L11 48390U 21038AP 21214.91667824 -.01139248 00000-0 -77550-1 0 9996
L22 48390 53.0486 322.4208 0001452 85.6644 143.2912 15.08918454 3660

Live tracking and technical data element details for STARLINK-2586 (NORAD 48390). STARLINK-2586 can be tracked NOW for your location showing map with azimuth and elevation plus other details from your city location.

Track the satellite on the map from your city or location and see movement details for azimuth, elevation, latitude, longitude, range, height, and movement on the map or in text.







IsCatalogInMostPopularTable: catalog: 48390, numindb: 25
Update: records affected: 1



GetName: 48390 STARLINK-2586

Hit Count: updated at: Tue, 03 Aug 2021 21:44:37 GMT